Salisbury, MD

12:07 AM EST on December 11, 2016 (GMT -0500)
Salisbury-Ocean City Wicomico Regional

Weather History for KSBY - February, 2014

Change the Weather History Date:

Saturday, February 15, 2014

  Actual Average Record
Temperature  
Mean Temperature 41 °F 38 °F  
Max Temperature 50 °F 47 °F 73 °F (1949)
Min Temperature 32 °F 28 °F 5 °F (1916)
Degree Days  
Heating Degree Days 24 27  
Month to date heating degree days 428 426  
Since 1 July heating degree days 2813 2967  
Cooling Degree Days 0 0  
Month to date cooling degree days 0 0  
Year to date cooling degree days 0 0  
Moisture  
Dew Point 31 °F    
Average Humidity 70    
Maximum Humidity 89    
Minimum Humidity 51    
Precipitation  
Precipitation 0.05 in 0.12 in 1.49 in (1953)
Month to date precipitation 1.63 1.78  
Year to date precipitation 3.76 5.39  
Snow  
Snow 0.00 in 0.10 in 2.00 in (1940)
Month to date snowfall T 2.0  
Since 1 July snowfall 11.5 7.0  
Snow Depth 0.00 in    
Sea Level Pressure  
Sea Level Pressure 29.66 in    
Wind  
Wind Speed 10 mph (NNW)    
Max Wind Speed 25 mph    
Max Gust Speed 35 mph    
Visibility 7 miles    
Events Rain , Snow    
T = Trace of Precipitation, MM = Missing Value Source: NWS Daily Summary

Daily Weather History Graph

Daily Weather History Graph

Search for Another Location

Airport or City:

Trip Planner

Search our weather history database for the weather conditions in past years. The results will help you decide how hot, cold, wet, or windy it might be!

Date:

Astronomy

Feb. 15, 2014 Rise Set
Actual Time 6:52 AM EST 5:40 PM EST
Civil Twilight 6:25 AM EST 6:07 PM EST
Nautical Twilight 5:54 AM EST 6:38 PM EST
Astronomical Twilight 5:23 AM EST 7:09 PM EST
Moon 6:36 PM EST (2/15) 6:51 AM EST (2/15)
Length of Visible Light 11h 42m
Length of Day
10h 47m
Full, 100% of the Moon is Illuminated
Feb 15
Full
Feb 22
Last Quarter
Mar 1
New
Mar 8
First Quarter
Mar 16
Full

Hourly Weather History & Observations

Time (EST) Temp. Windchill Dew Point Humidity Pressure Visibility Wind Dir Wind Speed Gust Speed Precip Events Conditions
12:54 AM 37.9 °F 35.5 °F 27.0 °F 65% 29.73 in 10.0 mi ENE 3.5 mph - N/A   Clear
1:54 AM 35.1 °F 32.2 °F 28.9 °F 78% 29.72 in 10.0 mi East 3.5 mph - N/A   Clear
2:54 AM 35.1 °F 32.2 °F 30.0 °F 82% 29.71 in 10.0 mi SE 3.5 mph - N/A   Scattered Clouds
3:54 AM 36.0 °F 31.1 °F 30.9 °F 82% 29.66 in 10.0 mi ESE 5.8 mph - N/A   Mostly Cloudy
4:54 AM 37.9 °F - 32.0 °F 79% 29.65 in 10.0 mi Calm Calm - N/A   Overcast
5:54 AM 37.9 °F 35.5 °F 33.1 °F 83% 29.65 in 10.0 mi East 3.5 mph - N/A   Overcast
6:54 AM 39.0 °F - 34.0 °F 82% 29.65 in 10.0 mi Calm Calm - N/A   Overcast
7:54 AM 39.0 °F - 34.0 °F 82% 29.62 in 10.0 mi Calm Calm - N/A   Overcast
8:54 AM 39.9 °F - 34.0 °F 79% 29.61 in 10.0 mi Calm Calm - N/A   Overcast
9:54 AM 42.1 °F 38.4 °F 35.1 °F 76% 29.61 in 10.0 mi East 5.8 mph - 0.00 in Rain Light Rain
10:54 AM 46.0 °F 41.9 °F 37.9 °F 73% 29.55 in 10.0 mi NE 8.1 mph - 0.00 in   Overcast
11:54 AM 48.9 °F - 37.9 °F 66% 29.51 in 10.0 mi NNE 6.9 mph - N/A   Scattered Clouds
12:54 PM 48.9 °F - 39.0 °F 69% 29.48 in 10.0 mi NNW 6.9 mph - 0.00 in Rain Light Rain
1:47 PM 44.6 °F 38.4 °F 39.2 °F 81% 29.50 in 4.0 mi NW 12.7 mph - 0.00 in Rain Light Rain
1:54 PM 43.0 °F 36.4 °F 39.0 °F 86% 29.51 in 3.0 mi NW 12.7 mph - 0.00 in Rain Light Rain
2:54 PM 37.0 °F 27.4 °F 34.0 °F 89% 29.54 in 4.0 mi NW 17.3 mph 28.8 mph 0.04 in Snow Light Snow
2:58 PM 35.6 °F 25.2 °F 33.8 °F 93% 29.53 in 1.8 mi NW 18.4 mph 26.5 mph 0.00 in Snow Light Snow
3:14 PM 35.6 °F 25.9 °F 32.0 °F 87% 29.54 in 0.8 mi NW 16.1 mph 25.3 mph 0.01 in Snow Light Snow
3:31 PM 35.6 °F 25.5 °F 32.0 °F 87% 29.55 in 1.0 mi NW 17.3 mph 25.3 mph 0.01 in Snow Light Snow
3:54 PM 36.0 °F 26.0 °F 32.0 °F 86% 29.57 in 1.5 mi NW 17.3 mph 26.5 mph 0.01 in Snow Light Snow
4:54 PM 35.1 °F 23.3 °F 30.9 °F 85% 29.64 in 1.0 mi NNW 23.0 mph 31.1 mph 0.00 in Snow Light Snow
5:13 PM 35.6 °F 24.2 °F 30.2 °F 81% 29.64 in 1.0 mi NNW 21.9 mph 27.6 mph 0.00 in Snow Light Snow
5:50 PM 35.6 °F 25.9 °F 32.0 °F 87% 29.67 in 3.0 mi NW 16.1 mph 25.3 mph 0.00 in Snow Light Snow
5:54 PM 35.1 °F 24.5 °F 32.0 °F 89% 29.68 in 3.0 mi NW 18.4 mph 25.3 mph 0.00 in Snow Light Snow
6:17 PM 35.6 °F 24.5 °F 30.2 °F 81% 29.70 in 4.0 mi NW 20.7 mph 28.8 mph 0.00 in Snow Light Snow
6:54 PM 36.0 °F 25.6 °F 30.0 °F 79% 29.74 in 9.0 mi NW 18.4 mph 29.9 mph 0.00 in   Overcast
7:03 PM 35.6 °F 25.2 °F 30.2 °F 81% 29.74 in 9.0 mi NW 18.4 mph 28.8 mph N/A   Overcast
7:54 PM 36.0 °F 25.6 °F 28.0 °F 73% 29.78 in 10.0 mi NW 18.4 mph 26.5 mph N/A   Overcast
8:54 PM 36.0 °F 25.3 °F 23.0 °F 59% 29.83 in 10.0 mi WNW 19.6 mph 31.1 mph N/A   Overcast
9:54 PM 34.0 °F 23.8 °F 19.9 °F 56% 29.88 in 10.0 mi NW 16.1 mph 25.3 mph N/A   Mostly Cloudy
10:54 PM 33.1 °F 23.0 °F 18.0 °F 54% 29.91 in 10.0 mi WNW 15.0 mph 25.3 mph N/A   Clear
11:54 PM 32.0 °F 20.8 °F 15.1 °F 50% 29.92 in 10.0 mi NW 17.3 mph 26.5 mph N/A   Clear